Regional Weather Roundup
Issued by NWS

Home | Current Version | Previous Version | Graphics & Text | Print | Product List | Glossary On
Versions: 1 2 3 4 5 6 7 8 9 10 11 12 13 14 15 16 17 18 19 20 21 22 23 24 25 26 27 28 29 30 31 32 33 34 35 36 37 38 39 40 41 42 43 44 45 46 47 48 49 50
000
ASUS43 KFSD 250202
RWRSD

WEATHER ROUNDUP FOR SOUTH DAKOTA
NATIONAL WEATHER SERVICE SIOUX FALLS SD
900 PM CDT THU JUL 24 2014

NOTE: "FAIR" INDICATES FEW OR NO CLOUDS BELOW 12,000 FEET WITH NO
SIGNIFICANT WEATHER AND/OR OBSTRUCTIONS TO VISIBILITY.


SDZ001>005-009-010-012>017-250300-
NORTHWEST AND NORTH CENTRAL SOUTH DAKOTA

CITY           SKY/WX    TMP DP  RH WIND       PRES   REMARKS
BUFFALO          N/A     72  60  66 E13       29.65F
FAITH            N/A     81  70  69 NE8       29.66S
MOBRIDGE       CLOUDY    73  65  75 E21G28    29.66F
$$

SDZ012>016-024>037-041>051-057-063-072>074-250300-
SOUTHWEST AND SOUTH CENTRAL SOUTH DAKOTA

CITY           SKY/WX    TMP DP  RH WIND       PRES   REMARKS
RAPID CTY ARPT CLEAR     84  73  69 VRB3      29.69S
PIERRE         MOCLDY    86  70  58 SE20      29.58F
CUSTER         PTCLDY    83  42  23 SW5       29.90F
ELLSWORTH AFB  CLEAR     85  71  63 S3        29.68S
PHILIP         PTCLDY    91  55  29 S9        29.62R
PINE RIDGE     PTCLDY    82  57  42 S17G28    29.76S
WINNER         FAIR      90  69  50 S20G35    29.62F
$$

SDZ004>011-016>023-039-040-250300-
NORTHEAST SOUTH DAKOTA

CITY           SKY/WX    TMP DP  RH WIND       PRES   REMARKS
ABERDEEN       CLEAR     72  62  71 SE14G24   29.77F
WATERTOWN      CLEAR     68  58  70 SE12G23   29.83R
SISSETON         N/A     70  64  81 S8        29.81F
$$

SDZ017-020-022-023-036>040-048>070-250300-
SOUTHEAST SOUTH DAKOTA

CITY           SKY/WX    TMP DP  RH WIND       PRES   REMARKS
SIOUX FALLS    MOCLDY    70  63  78 S14       29.83F
HURON          CLEAR     72  62  71 SE17G28   29.71F
CHAMBERLAIN    MOCLDY    82  69  65 SE20      29.66F
MITCHELL       PTCLDY    76  64  66 SE23G35   29.74F
YANKTON        CLEAR     73  63  68 SE20G26   29.82S
$$

ABBREVIATIONS USED IN REMARKS
   TC - TEMPERATURE IN CELSIUS
  WCI - WIND CHILL INDEX
   HX - HEAT INDEX
  VSB - VISIBILITY



USA.gov is the U.S. government's official web portal to all federal, state and local government web resources and services.